Weather in Munnar

India     10°04′56″N   77°03′38″E
temp.,
°C
wind,
m/s
gust,
m/s
humid.,
%
clouds,
%
prec.,
mm/h
press.,
hPa
HPBL,
m
12 april, mon
mon1223:30+19ene239111 1.1 101555
02:30+19ene219068 0.1 101327
05:30+18ene2188100 0.1 101423
08:30+24sse116597 0.0 1015511
11:30+27sw115598 0.8 10141350
14:30+22nnw128159 2.6 1012136
17:30+20ene1297100 13.0 1012112
20:30+20ese1294100 13.7 101550
13 april, tue
tue1323:30+19e229410 14.1 101538
02:30+19ene11925 0.0 101315
05:30+18ene119112 0.0 101318
08:30+24sse11727 0.0 1015448
11:30+28wsw125286 0.5 10131741
14:30+25w227363 2.8 1011653
17:30+21nnw1189100 8.6 101234
20:30+20ne0094100 3.0 101419
14 april, wed
wed1423:30+20ene0097100 3.4 101514
02:30+19ne119748 0.3 101320
05:30+18ne119336 0.5 101312
08:30+23w117720 0.0 1015350
11:30+28wsw235632 0.3 10131474
14:30+24wnw2382100 4.3 1011559
17:30+21nnw1190100 10.4 101138
20:30+20nnw1295100 1.4 101481
15 april, thu
thu1523:30+20nne119869 1.6 101442
02:30+19ne119759 1.2 101327
05:30+19ne119323 1.7 101314
08:30+23w117838 0.0 1015324
11:30+27wsw226291 0.6 10131142
14:30+25nw237699 4.7 1011589
17:30+21w1193100 10.8 101144
20:30+20nw1196100 7.9 101331
16 april, fri
fri1623:30+20ssw0197100 14.4 101438
02:30+19ene0095100 1.3 101112
05:30+19ne1194100 2.8 101213
08:30+22s1284100 0.1 1014245
11:30+27sw1159100 1.7 10131333
14:30+23w2285100 4.3 1011504
17:30+22w238998 5.7 1011381
20:30+20nnw1399100 0.6 1014146